When you browse on this site, cookies collect data to enhance your experience and personalize the content and advertising you see.
Visit our Privacy Policy to learn more. By continuing to use the site, you agree to this use of cookies and data.
  • En España
  • Lista de países
  • Para 7 días
  • Temperatura del agua
  • El tiempo en el mapa
  • Informadores
  • user-avatar
    Iniciar sesión

    Tiempo cada hora São Luís

    Hoy, 10 Abril, Viernes

    Tiempo Temperatura Precipitaciones Viento Presión Humedad
    00:00 +28°C° 1 mm 2 mps 758 mmHg 91%
    01:00 +28°C° 1.2 mm 2 mps 757 mmHg 90%
    02:00 +27°C° 1.2 mm 2 mps 757 mmHg 90%
    03:00 +27°C° 0 mm 2 mps 757 mmHg 91%
    04:00 +27°C° 1.1 mm 2 mps 757 mmHg 90%
    05:00 +27°C° 1.1 mm 3 mps 757 mmHg 90%
    06:00 +27°C° 1.1 mm 3 mps 757 mmHg 89%
    07:00 +28°C° 0.8 mm 3 mps 758 mmHg 88%
    08:00 +29°C° 0.8 mm 3 mps 758 mmHg 86%
    09:00 +30°C° 0 mm 3 mps 758 mmHg 85%
    10:00 +31°C° 0.6 mm 3 mps 758 mmHg 83%
    11:00 +31°C° 0.6 mm 3 mps 758 mmHg 81%
    12:00 +32°C° 0.6 mm 4 mps 757 mmHg 80%
    13:00 +32°C° 0.5 mm 4 mps 757 mmHg 80%
    14:00 +32°C° 0.5 mm 4 mps 756 mmHg 81%
    15:00 +32°C° 0.5 mm 5 mps 756 mmHg 82%
    16:00 +30°C° 0.2 mm 4 mps 756 mmHg 84%
    17:00 +30°C° 0.2 mm 4 mps 756 mmHg 86%
    18:00 +29°C° 0.2 mm 4 mps 756 mmHg 89%
    19:00 +29°C° 0.4 mm 4 mps 757 mmHg 89%
    20:00 +28°C° 0.4 mm 4 mps 757 mmHg 90%
    21:00 +28°C° 0.4 mm 4 mps 758 mmHg 90%
    22:00 +28°C° 0.3 mm 3 mps 758 mmHg 91%
    23:00 +28°C° 0.3 mm 3 mps 758 mmHg 91%

    Mañana, 11 Abril, Sábado

    Tiempo Temperatura Precipitaciones Viento Presión Humedad
    00:00 +28°C° 0.3 mm 3 mps 758 mmHg 91%
    01:00 +28°C° 1.8 mm 3 mps 757 mmHg 91%
    02:00 +27°C° 1.8 mm 3 mps 757 mmHg 91%
    03:00 +27°C° 1.8 mm 3 mps 757 mmHg 91%
    04:00 +27°C° 1.4 mm 3 mps 757 mmHg 91%
    05:00 +27°C° 1.4 mm 2 mps 757 mmHg 91%
    06:00 +27°C° 1.4 mm 2 mps 757 mmHg 91%
    07:00 +28°C° 0.8 mm 2 mps 757 mmHg 89%
    08:00 +29°C° 0.8 mm 2 mps 758 mmHg 87%
    09:00 +30°C° 0.8 mm 2 mps 758 mmHg 85%
    10:00 +30°C° 0.5 mm 2 mps 758 mmHg 83%
    11:00 +31°C° 0.5 mm 2 mps 758 mmHg 80%
    12:00 +31°C° 0.5 mm 3 mps 758 mmHg 78%
    13:00 +31°C° 0.4 mm 3 mps 757 mmHg 79%
    14:00 +31°C° 0.4 mm 3 mps 757 mmHg 80%
    15:00 +32°C° 0.4 mm 4 mps 756 mmHg 81%
    16:00 +30°C° 0 mm 4 mps 756 mmHg 82%
    17:00 +29°C° 0 mm 3 mps 756 mmHg 83%
    18:00 +29°C° 0 mm 3 mps 756 mmHg 85%
    19:00 +28°C° 0 mm 3 mps 757 mmHg 86%
    20:00 +28°C° 0 mm 3 mps 758 mmHg 87%
    21:00 +28°C° 0 mm 3 mps 758 mmHg 89%
    22:00 +28°C° 0.1 mm 3 mps 758 mmHg 89%
    23:00 +28°C° 0.1 mm 3 mps 758 mmHg 90%

    Pasado mañana, 12 Abril, Domingo

    Tiempo Temperatura Precipitaciones Viento Presión Humedad
    00:00 +28°C° 0.1 mm 3 mps 758 mmHg 91%
    01:00 +27°C° 1.6 mm 3 mps 757 mmHg 91%
    02:00 +27°C° 1.6 mm 3 mps 757 mmHg 91%
    03:00 +27°C° 1.6 mm 3 mps 757 mmHg 91%
    04:00 +27°C° 2.1 mm 3 mps 757 mmHg 92%
    05:00 +27°C° 2.1 mm 2 mps 757 mmHg 92%
    06:00 +27°C° 2.1 mm 2 mps 757 mmHg 92%
    07:00 +27°C° 1.9 mm 3 mps 758 mmHg 91%
    08:00 +28°C° 1.9 mm 3 mps 759 mmHg 89%
    09:00 +29°C° 1.9 mm 3 mps 759 mmHg 88%
    10:00 +29°C° 2.2 mm 3 mps 759 mmHg 86%
    11:00 +30°C° 2.2 mm 3 mps 758 mmHg 85%
    12:00 +30°C° 2.2 mm 3 mps 758 mmHg 83%
    13:00 +30°C° 1.3 mm 4 mps 757 mmHg 84%
    14:00 +30°C° 1.3 mm 4 mps 757 mmHg 86%
    15:00 +29°C° 1.3 mm 4 mps 756 mmHg 87%
    16:00 +29°C° 0.2 mm 4 mps 756 mmHg 88%
    17:00 +28°C° 0.2 mm 4 mps 756 mmHg 88%
    18:00 +28°C° 0.2 mm 3 mps 757 mmHg 89%
    19:00 +28°C° 0 mm 3 mps 757 mmHg 89%
    20:00 +28°C° 0 mm 3 mps 757 mmHg 89%
    21:00 +28°C° 0 mm 3 mps 758 mmHg 90%
    22:00 +27°C° 1 mm 3 mps 758 mmHg 90%
    23:00 +27°C° 1 mm 2 mps 758 mmHg 90%

    13 Abril, Lunes

    Tiempo Temperatura Precipitaciones Viento Presión Humedad
    00:00 +27°C° 1 mm 2 mps 758 mmHg 91%
    01:00 +27°C° 1 mm 2 mps 757 mmHg 91%
    02:00 +27°C° 1 mm 2 mps 757 mmHg 91%
    03:00 +27°C° 1 mm 2 mps 757 mmHg 91%
    04:00 +27°C° 1.3 mm 2 mps 757 mmHg 91%
    05:00 +26°C° 1.3 mm 2 mps 757 mmHg 92%
    06:00 +26°C° 1.3 mm 1 mps 757 mmHg 92%
    07:00 +27°C° 0.7 mm 2 mps 758 mmHg 91%
    08:00 +28°C° 0.7 mm 2 mps 758 mmHg 90%
    09:00 +29°C° 0.7 mm 2 mps 758 mmHg 89%
    10:00 +29°C° 0.7 mm 2 mps 758 mmHg 85%
    11:00 +30°C° 0.7 mm 1 mps 758 mmHg 81%
    12:00 +31°C° 0.7 mm 1 mps 757 mmHg 77%
    13:00 +31°C° 0.7 mm 1 mps 756 mmHg 79%
    14:00 +30°C° 0.7 mm 2 mps 756 mmHg 82%
    15:00 +30°C° 0.7 mm 3 mps 755 mmHg 84%
    16:00 +29°C° 1.6 mm 3 mps 755 mmHg 86%
    17:00 +29°C° 1.6 mm 3 mps 756 mmHg 88%
    18:00 +28°C° 1.6 mm 4 mps 756 mmHg 90%
    19:00 +27°C° 2.4 mm 4 mps 756 mmHg 91%
    20:00 +27°C° 2.4 mm 4 mps 757 mmHg 93%
    21:00 +26°C° 2.4 mm 3 mps 757 mmHg 94%
    22:00 +26°C° 4.2 mm 3 mps 757 mmHg 95%
    23:00 +26°C° 4.2 mm 3 mps 757 mmHg 95%

    14 Abril, Martes

    Tiempo Temperatura Precipitaciones Viento Presión Humedad
    00:00 +26°C° 4.2 mm 3 mps 757 mmHg 95%
    01:00 +26°C° 2 mm 3 mps 757 mmHg 95%
    02:00 +26°C° 2 mm 3 mps 756 mmHg 95%
    03:00 +26°C° 2 mm 4 mps 756 mmHg 94%
    04:00 +26°C° 5.8 mm 4 mps 756 mmHg 95%
    05:00 +26°C° 5.8 mm 4 mps 756 mmHg 95%
    06:00 +26°C° 5.8 mm 4 mps 756 mmHg 96%
    07:00 +26°C° 13.7 mm 4 mps 757 mmHg 96%
    08:00 +26°C° 13.7 mm 4 mps 757 mmHg 96%
    09:00 +26°C° 13.7 mm 4 mps 758 mmHg 96%
    10:00 +26°C° 4.7 mm 4 mps 758 mmHg 96%
    11:00 +26°C° 4.7 mm 3 mps 757 mmHg 95%
    12:00 +26°C° 4.7 mm 2 mps 757 mmHg 95%
    13:00 +26°C° 0.9 mm 2 mps 757 mmHg 94%
    14:00 +27°C° 0.9 mm 2 mps 756 mmHg 94%
    15:00 +27°C° 0.9 mm 3 mps 756 mmHg 93%
    16:00 +27°C° 0.5 mm 3 mps 756 mmHg 93%
    17:00 +26°C° 0.5 mm 3 mps 757 mmHg 93%
    18:00 +26°C° 0.5 mm 3 mps 757 mmHg 94%
    19:00 +26°C° 0.9 mm 3 mps 757 mmHg 94%
    20:00 +26°C° 0.9 mm 3 mps 758 mmHg 94%
    21:00 +25°C° 0.9 mm 3 mps 758 mmHg 95%
    22:00 +25°C° 0.4 mm 3 mps 758 mmHg 95%
    23:00 +25°C° 0.4 mm 3 mps 758 mmHg 95%

    15 Abril, Miércoles

    Tiempo Temperatura Precipitaciones Viento Presión Humedad
    00:00 +25°C° 0.4 mm 3 mps 758 mmHg 95%
    01:00 +25°C° 0 mm 3 mps 757 mmHg 95%
    02:00 +25°C° 0 mm 3 mps 757 mmHg 95%
    03:00 +25°C° 0 mm 3 mps 757 mmHg 95%
    04:00 +25°C° 0 mm 2 mps 757 mmHg 96%
    05:00 +25°C° 0 mm 2 mps 757 mmHg 96%
    06:00 +25°C° 0 mm 2 mps 757 mmHg 96%
    07:00 +26°C° 0 mm 2 mps 758 mmHg 94%
    08:00 +27°C° 0 mm 2 mps 759 mmHg 92%
    09:00 +27°C° 0 mm 2 mps 759 mmHg 90%
    10:00 +28°C° 0.1 mm 2 mps 759 mmHg 86%
    11:00 +29°C° 0.1 mm 2 mps 758 mmHg 83%
    12:00 +30°C° 0.1 mm 2 mps 758 mmHg 79%
    13:00 +30°C° 0 mm 2 mps 757 mmHg 78%
    14:00 +30°C° 0 mm 2 mps 757 mmHg 78%
    15:00 +30°C° 0 mm 2 mps 756 mmHg 77%
    16:00 +29°C° 0 mm 2 mps 757 mmHg 80%
    17:00 +28°C° 0 mm 2 mps 757 mmHg 84%
    18:00 +28°C° 0 mm 2 mps 757 mmHg 87%
    19:00 +27°C° 0.1 mm 2 mps 758 mmHg 88%
    20:00 +27°C° 0.1 mm 2 mps 758 mmHg 90%
    21:00 +26°C° 0.1 mm 2 mps 759 mmHg 91%
    22:00 +26°C° 0.2 mm 2 mps 759 mmHg 91%
    23:00 +26°C° 0.2 mm 2 mps 759 mmHg 91%
    Mostrar más